FW6490 Weather Reports


time (UTC)temp
C
wind
direction
speed
KPH
gust
KPH
rain 1hr
cm
rain 24hr
cm
rain mn
cm
humidity
%
barometer
mb
20260904223814 25 329 6.4 14.5 0.00 0.00 0.00 64 1007.7
20260904223312 25 257 6.4 14.5 0.00 0.00 0.00 65 1007.7
20260904222813 25 331 8.0 14.5 0.00 0.00 0.00 65 1007.8
20260904222308 25 317 8.0 17.7 0.00 0.00 0.00 64 1007.8
20260904221807 26 320 6.4 17.7 0.00 0.00 0.00 63 1007.8
20260904221310 25 319 8.0 14.5 0.00 0.00 0.00 63 1007.9
20260904220805 25 313 8.0 16.1 0.00 0.00 0.00 63 1007.9
20260904220304 26 309 6.4 16.1 0.00 0.00 0.00 63 1007.9
20260904215804 25 317 6.4 16.1 0.00 0.00 0.00 63 1007.9
20260904215300 25 327 8.0 14.5 0.00 0.00 0.00 64 1007.9
20260904214759 26 310 8.0 17.7 0.00 0.00 0.00 61 1007.9
20260904214254 26 306 6.4 17.7 0.00 0.00 0.00 62 1007.9
20260904213753 25 310 8.0 14.5 0.00 0.00 0.00 64 1007.9
20260904213251 26 320 8.0 14.5 0.00 0.00 0.00 62 1007.9
20260904212749 26 18 6.4 17.7 0.00 0.00 0.00 62 1008.0
20260904212250 26 313 6.4 17.7 0.00 0.00 0.00 61 1008.1
20260904211747 26 347 6.4 14.5 0.00 0.00 0.00 62 1008.0
20260904211251 25 325 6.4 14.5 0.00 0.00 0.00 63 1008.0
20260904210746 26 0 6.4 16.1 0.00 0.00 0.00 61 1008.0
20260904210246 26 335 6.4 16.1 0.00 0.00 0.00 62 1008.0
20260904205744 26 333 8.0 16.1 0.00 0.00 0.00 62 1007.9
20260904205244 26 350 8.0 16.1 0.00 0.00 0.00 62 1007.9
20260904204742 26 325 8.0 14.5 0.00 0.00 0.00 60 1008.0
20260904204242 26 305 8.0 14.5 0.00 0.00 0.00 59 1008.0
20260904203241 27 329 6.4 12.9 0.00 0.00 0.00 58 1008.0
20260904202742 27 12 6.4 11.3 0.00 0.00 0.00 58 1008.1
20260904202239 27 321 6.4 14.5 0.00 0.00 0.00 58 1008.1
20260904201738 27 15 4.8 16.1 0.00 0.00 0.00 58 1008.1
20260904201237 27 325 4.8 16.1 0.00 0.00 0.00 59 1008.1
20260904200738 27 318 6.4 16.1 0.00 0.00 0.00 58 1008.1
20260904200236 27 325 6.4 12.9 0.00 0.00 0.00 59 1008.1
20260904195734 27 320 6.4 12.9 0.00 0.00 0.00 59 1008.2
20260904194740 27 323 6.4 12.9 0.00 0.00 0.00 58 1008.2
20260904194234 27 306 4.8 12.9 0.00 0.00 0.00 59 1008.2
20260904193233 27 27 4.8 9.7 0.00 0.00 0.00 60 1008.2
20260904192729 26 309 3.2 9.7 0.00 0.00 0.00 61 1008.4
20260904192230 26 288 3.2 8.0 0.00 0.00 0.00 60 1008.4
20260904191727 26 18 3.2 8.0 0.00 0.00 0.00 61 1008.3
20260904191224 26 326 3.2 8.0 0.00 0.00 0.00 62 1008.5
20260904190724 26 0 3.2 6.4 0.00 0.00 0.00 61 1008.5
20260904190223 26 355 1.6 6.4 0.00 0.00 0.00 63 1008.5
20260904185726 25 355 3.2 9.7 0.00 0.00 0.00 63 1008.7
20260904185221 25 355 3.2 9.7 0.00 0.00 0.00 63 1008.7
20260904184716 25 22 3.2 9.7 0.00 0.00 0.00 64 1008.7
20260904184212 25 25 3.2 9.7 0.00 0.00 0.00 64 1008.9
20260904183711 25 27 3.2 9.7 0.00 0.00 0.00 65 1008.9
20260904183214 25 313 3.2 6.4 0.00 0.00 0.00 66 1008.9
20260904182711 24 313 3.2 6.4 0.00 0.00 0.00 68 1009.0
20260904182208 24 307 3.2 6.4 0.00 0.00 0.00 69 1009.0
20260904181201 23 306 3.2 8.0 0.00 0.00 0.00 71 1009.1
20260904180701 23 304 4.8 9.7 0.00 0.00 0.00 72 1009.1
20260904180200 23 306 3.2 9.7 0.00 0.00 0.00 71 1009.1
20260904175659 22 315 1.6 6.4 0.00 0.00 0.00 73 1009.1
20260904175200 22 315 3.2 8.0 0.00 0.00 0.00 74 1009.1
20260904174151 22 313 4.8 9.7 0.00 0.00 0.00 73 1009.1
20260904173651 22 290 3.2 8.0 0.00 0.00 0.00 74 1009.1
20260904173149 22 355 1.6 6.4 0.00 0.00 0.00 74 1009.1
20260904172644 22 0 1.6 6.4 0.00 0.00 0.00 75 1009.1
20260904172142 22 0 1.6 6.4 0.00 0.00 0.00 75 1009.1
20260904171639 21 5 0.0 4.8 0.00 0.00 0.00 78 1009.0
20260904171137 21 5 0.0 3.2 0.00 0.00 0.00 78 1008.7
20260904170636 21 5 1.6 6.4 0.00 0.00 0.00 79 1008.7
20260904170134 20 5 3.2 6.4 0.00 0.00 0.00 79 1008.7
20260904165638 21 5 3.2 6.4 0.00 0.00 0.00 79 1008.6
20260904165132 21 5 1.6 6.4 0.00 0.00 0.00 79 1008.6
20260904164629 21 5 0.0 1.6 0.00 0.00 0.00 79 1008.6
20260904164129 21 5 0.0 1.6 0.00 0.00 0.00 80 1008.5
20260904163627 20 5 0.0 0.0 0.00 0.00 0.00 82 1008.5
20260904162128 20 348 0.0 6.4 0.00 0.00 0.00 83 1008.5
20260904161122 18 333 0.0 0.0 0.00 0.00 0.00 88 1008.5
20260904160622 18 333 0.0 0.0 0.00 0.00 0.00 88 1008.5
20260904155618 18 331 0.0 0.0 0.00 0.00 0.00 91 1008.5
20260904155114 18 331 0.0 0.0 0.00 0.00 0.00 91 1008.5
20260904154613 18 331 0.0 0.0 0.00 0.00 0.00 91 1008.5
20260904153605 18 331 0.0 0.0 0.00 0.00 0.00 92 1008.5
20260904153102 18 331 0.0 0.0 0.00 0.00 0.00 93 1008.5
20260904152559 18 321 0.0 0.0 0.00 0.00 0.00 94 1008.5
20260904152056 17 321 0.0 0.0 0.00 0.00 0.00 94 1008.5
20260904151552 17 321 0.0 0.0 0.00 0.00 0.00 94 1008.5
20260904150550 17 321 0.0 0.0 0.00 0.00 0.00 94 1008.5
20260904145045 17 321 0.0 0.0 0.00 0.00 0.00 94 1008.4
20260904144542 17 321 0.0 0.0 0.00 0.00 0.00 95 1008.4
20260904144043 17 321 0.0 0.0 0.00 0.00 0.00 95 1008.3
20260904143044 17 321 0.0 0.0 0.00 0.00 0.00 94 1008.3
20260904142038 17 321 0.0 0.0 0.00 0.00 0.00 94 1008.2
20260904141537 17 321 0.0 0.0 0.00 0.00 0.00 95 1008.2
20260904141037 17 321 0.0 0.0 0.00 0.00 0.00 95 1008.0
20260904140532 16 321 0.0 0.0 0.00 0.00 0.00 95 1007.9
20260904140032 16 321 0.0 0.0 0.00 0.00 0.00 94 1007.9
20260904135529 16 321 0.0 0.0 0.00 0.00 0.00 94 1007.9
20260904135029 16 321 0.0 0.0 0.00 0.00 0.00 94 1007.9
20260904134526 16 321 0.0 0.0 0.00 0.00 0.00 94 1007.9
20260904134030 16 321 0.0 0.0 0.00 0.00 0.00 94 1007.9
20260904133520 16 321 0.0 1.6 0.00 0.00 0.00 94 1007.9
20260904133016 17 321 0.0 1.6 0.00 0.00 0.00 94 1007.9
20260904132515 17 321 0.0 0.0 0.00 0.00 0.00 94 1007.8
20260904132007 17 321 0.0 0.0 0.00 0.00 0.00 94 1007.8
20260904131505 17 321 0.0 0.0 0.00 0.00 0.00 94 1007.8
20260904131000 17 321 0.0 0.0 0.00 0.00 0.00 94 1007.9
20260904130454 17 321 0.0 0.0 0.00 0.00 0.00 93 1007.9
20260904125951 17 321 0.0 0.0 0.00 0.00 0.00 93 1007.9
20260904124448 17 321 0.0 0.0 0.00 0.00 0.00 93 1007.6
20260904123441 17 321 0.0 0.0 0.00 0.00 0.00 93 1007.6
20260904122942 17 321 0.0 0.0 0.00 0.00 0.00 93 1007.6
20260904122438 17 321 0.0 0.0 0.00 0.00 0.00 93 1007.6
20260904121433 17 321 0.0 0.0 0.00 0.00 0.00 93 1007.6
20260904120928 17 321 0.0 0.0 0.00 0.00 0.00 93 1007.7
20260904120429 17 321 0.0 0.0 0.00 0.00 0.00 93 1007.7
20260904115924 17 321 0.0 0.0 0.00 0.00 0.00 93 1007.7
20260904114918 17 321 0.0 1.6 0.00 0.00 0.00 93 1007.7
20260904114415 17 321 0.0 1.6 0.00 0.00 0.00 93 1007.7
20260904113915 17 321 0.0 1.6 0.00 0.00 0.00 93 1007.8
20260904113415 17 321 0.0 0.0 0.00 0.00 0.00 93 1007.8
20260904112917 17 321 0.0 0.0 0.00 0.00 0.00 93 1007.8
20260904112408 17 321 0.0 0.0 0.00 0.00 0.00 93 1007.6
20260904110859 17 321 0.0 0.0 0.00 0.00 0.00 93 1007.6
20260904110400 17 321 0.0 0.0 0.00 0.00 0.00 93 1007.6
20260904105856 17 321 0.0 0.0 0.00 0.00 0.00 93 1007.5
20260904104349 17 321 0.0 3.2 0.00 0.00 0.00 93 1007.5
20260904103842 17 321 1.6 3.2 0.00 0.00 0.00 92 1007.5
20260904103339 17 321 0.0 3.2 0.00 0.00 0.00 92 1007.5
20260904102331 17 321 0.0 3.2 0.00 0.00 0.00 92 1007.5
20260904101827 17 321 0.0 0.0 0.00 0.00 0.00 92 1007.5
20260904101328 17 321 0.0 0.0 0.00 0.00 0.00 92 1007.5
20260904100822 17 321 0.0 0.0 0.00 0.00 0.00 92 1007.5
20260904100319 17 321 0.0 1.6 0.00 0.00 0.00 92 1007.5
20260904095820 17 321 0.0 1.6 0.00 0.00 0.00 92 1007.5
20260904095320 17 321 0.0 1.6 0.00 0.00 0.00 91 1007.5
20260904094824 17 321 0.0 3.2 0.00 0.00 0.00 91 1007.5
20260904094314 17 321 0.0 3.2 0.00 0.00 0.00 91 1007.5
20260904093816 17 321 0.0 4.8 0.00 0.00 0.00 91 1007.5
20260904093316 17 321 0.0 4.8 0.00 0.00 0.00 91 1007.5
20260904092305 17 321 0.0 1.6 0.00 0.00 0.00 91 1007.5
20260904091757 17 321 0.0 3.2 0.00 0.00 0.00 91 1007.5
20260904091258 17 321 0.0 3.2 0.00 0.00 0.00 91 1007.5
20260904090752 17 321 0.0 3.2 0.00 0.00 0.00 91 1007.5
20260904085753 17 321 0.0 3.2 0.00 0.00 0.00 90 1007.5
20260904084744 17 321 0.0 3.2 0.00 0.00 0.00 91 1007.5
20260904084244 17 321 0.0 0.0 0.00 0.00 0.00 91 1007.8
20260904083743 17 321 0.0 1.6 0.00 0.00 0.00 90 1007.8
20260904083243 17 321 0.0 1.6 0.00 0.00 0.00 90 1007.8
20260904082740 17 321 0.0 1.6 0.00 0.00 0.00 90 1007.9
20260904082243 17 321 0.0 1.6 0.00 0.00 0.00 90 1007.9
20260904081741 17 321 0.0 1.6 0.00 0.00 0.00 90 1007.9
20260904081233 17 321 0.0 1.6 0.00 0.00 0.00 90 1008.0
20260904080733 17 321 0.0 3.2 0.00 0.00 0.00 90 1008.0
20260904080233 17 321 0.0 3.2 0.00 0.00 0.00 90 1008.0
20260904075724 17 321 0.0 1.6 0.00 0.00 0.00 90 1008.0
20260904075218 17 321 0.0 1.6 0.00 0.00 0.00 90 1008.0
20260904074718 17 321 0.0 1.6 0.00 0.00 0.00 90 1008.0
20260904073714 17 321 1.6 4.8 0.00 0.00 0.00 90 1008.0
20260904073213 17 321 1.6 4.8 0.00 0.00 0.00 90 1008.0
20260904072707 17 321 0.0 4.8 0.00 0.00 0.00 90 1008.0
20260904072208 17 320 0.0 0.0 0.00 0.00 0.00 90 1008.0
20260904071708 17 320 0.0 0.0 0.00 0.00 0.00 90 1008.0
20260904071206 17 320 0.0 0.0 0.00 0.00 0.00 89 1008.0
20260904070203 17 320 0.0 0.0 0.00 0.00 0.00 89 1008.0
20260904065154 17 320 0.0 0.0 0.00 0.00 0.00 89 1008.0
20260904064152 17 320 0.0 0.0 0.00 0.00 0.00 89 1008.0
20260904063650 17 320 0.0 0.0 0.00 0.00 0.00 89 1008.0
20260904063146 17 320 0.0 0.0 0.00 0.00 0.00 89 1008.0
20260904062648 17 320 0.0 0.0 0.00 0.00 0.00 89 1008.0
20260904062145 17 319 0.0 0.0 0.00 0.00 0.00 89 1008.0
20260904061651 17 319 0.0 0.0 0.00 0.00 0.00 89 1008.0
20260904060638 17 319 0.0 0.0 0.00 0.00 0.00 89 1008.0
20260904060138 17 319 0.0 0.0 0.00 0.00 0.00 89 1008.0
20260904055638 17 319 0.0 0.0 0.00 0.00 0.00 89 1008.0
20260904054631 17 319 0.0 0.0 0.00 0.00 0.00 89 1008.0
20260904054134 17 319 0.0 0.0 0.00 0.00 0.00 89 1007.9
20260904053630 17 319 0.0 1.6 0.00 0.00 0.00 89 1007.9
20260904053128 17 316 0.0 3.2 0.00 0.00 0.00 89 1008.0
20260904052628 17 315 0.0 3.2 0.00 0.00 0.00 89 1008.0
20260904052126 17 292 0.0 4.8 0.00 0.00 0.00 89 1008.0
20260904051625 17 292 0.0 4.8 0.00 0.00 0.00 89 1008.0
20260904045618 16 290 0.0 0.0 0.00 0.00 0.00 89 1007.9
20260904045117 16 290 0.0 0.0 0.00 0.00 0.00 89 1007.9
20260904044616 16 290 0.0 0.0 0.00 0.00 0.00 89 1007.9
20260904044113 16 290 0.0 0.0 0.00 0.00 0.00 89 1007.9
20260904043609 16 290 0.0 4.8 0.00 0.00 0.00 89 1007.9
20260904043107 16 290 0.0 4.8 0.00 0.00 0.00 89 1007.9
20260904042602 16 290 0.0 3.2 0.00 0.00 0.00 89 1007.9
20260904042100 16 290 0.0 3.2 0.00 0.00 0.00 89 1007.9
20260904041058 16 290 0.0 3.2 0.00 0.00 0.00 89 1007.8
20260904040552 16 290 1.6 3.2 0.00 0.00 0.00 89 1007.8
20260904040047 16 290 1.6 4.8 0.00 0.00 0.00 89 1007.8
20260904035548 16 290 0.0 4.8 0.00 0.00 0.00 88 1007.5
20260904034042 16 290 1.6 4.8 0.00 0.00 0.00 87 1007.4
20260904033541 16 290 0.0 4.8 0.00 0.00 0.00 87 1007.4
20260904033040 16 290 0.0 4.8 0.00 0.00 0.00 87 1007.4
20260904032034 16 290 1.6 6.4 0.00 0.00 0.00 86 1007.4
20260904031535 16 290 1.6 3.2 0.00 0.00 0.00 86 1007.4
20260904031035 16 290 1.6 6.4 0.00 0.00 0.00 86 1007.4
20260904025023 17 279 3.2 6.4 0.00 0.00 0.00 85 1007.4
20260904024522 17 281 4.8 11.3 0.00 0.00 0.00 85 1007.4
20260904024027 17 282 4.8 11.3 0.00 0.00 0.00 84 1007.4
20260904023521 17 314 4.8 11.3 0.00 0.00 0.00 84 1007.4
20260904023021 17 301 6.4 11.3 0.00 0.00 0.00 84 1007.4
20260904022524 17 294 6.4 12.9 0.00 0.00 0.00 83 1007.3
20260904021018 17 309 6.4 14.5 0.00 0.00 0.00 82 1007.2
20260904020516 17 303 6.4 14.5 0.00 0.00 0.00 81 1007.2
20260904015513 18 288 6.4 14.5 0.00 0.00 0.00 80 1007.2
20260904014505 18 281 6.4 14.5 0.00 0.00 0.00 79 1007.2
20260904014007 18 309 6.4 14.5 0.00 0.00 0.00 78 1007.3
20260904013502 18 279 6.4 12.9 0.00 0.00 0.00 78 1007.3
20260904012959 18 284 6.4 17.7 0.00 0.00 0.00 77 1007.3
20260904012458 19 295 6.4 16.1 0.00 0.00 0.00 76 1007.4
20260904011956 19 275 6.4 16.1 0.00 0.00 0.00 75 1007.4
20260904011458 19 306 8.0 16.1 0.00 0.00 0.00 75 1007.4
20260904010956 20 307 8.0 17.7 0.00 0.00 0.00 74 1007.5
20260904010457 20 313 8.0 19.3 0.00 0.00 0.00 74 1007.5
20260904005956 20 275 8.0 22.5 0.00 0.00 0.00 73 1007.5
20260904005454 20 293 8.0 22.5 0.00 0.00 0.00 71 1007.5
20260904004958 21 312 6.4 17.7 0.00 0.00 0.00 69 1007.5
20260904003950 21 311 6.4 12.9 0.00 0.00 0.00 66 1007.6
20260904002948 21 315 6.4 16.1 0.00 0.00 0.00 67 1007.6
20260904002447 21 303 8.0 17.7 0.00 0.00 0.00 67 1007.6
20260904001946 21 315 8.0 17.7 0.00 0.00 0.00 67 1007.6
20260904001445 21 324 8.0 17.7 0.00 0.00 0.00 68 1007.6
20260904000941 21 312 8.0 17.7 0.00 0.00 0.00 67 1007.6
20260904000444 21 311 8.0 17.7 0.00 0.00 0.00 68 1007.6
20260903235942 22 301 8.0 17.7 0.00 0.00 0.00 66 1007.6
20260903235441 22 0 8.0 16.1 0.00 0.00 0.00 65 1007.8
20260903234940 22 321 8.0 16.1 0.00 0.00 0.00 66 1007.8
20260903234439 22 319 8.0 16.1 0.00 0.00 0.00 66 1007.8
20260903233936 22 323 8.0 17.7 0.00 0.00 0.00 67 1007.8
20260903232934 22 302 9.7 22.5 0.00 0.00 0.00 65 1007.8
20260903231436 22 303 8.0 19.3 0.00 0.00 0.00 64 1008.0
20260903230940 22 58 8.0 17.7 0.00 0.00 0.00 65 1008.0
20260903230434 22 309 8.0 19.3 0.00 0.00 0.00 64 1008.0
20260903225930 22 312 8.0 19.3 0.00 0.00 0.00 62 1008.0
20260903224929 22 298 8.0 19.3 0.00 0.00 0.00 65 1008.1
20260903224431 22 321 9.7 20.9 0.00 0.00 0.00 63 1008.1